WXM80 ListenWXM80 Stop

You find our weather info also at:

UK Metoffice

WeatherCloud

Weather Underground

Northeastern Weather Network

AWEKAS

Citizen Weather Observer Program (CWOP)

HAMweather, WeatherForYou, PWS Weather


Weather Underground History page Text

Daily Summary for September 11, 2017 Units:  Metric    English   Both
« Previous Day
Next Day »
Daily Weekly Monthly Yearly Custom
  High: Low: Average:
Temperature: 26.6 °C 13.2 °C 19.4 °C
Dew Point: 16.3 °C 11 °C 13.1 °C
Humidity: 89 % 42 % 69 %
Wind Speed: 14.5 km/h 0 km/h 2.4 km/h
Wind Gust: 24.1 km/h - -
Wind:- - SW
Pressure: 1026.3 hPa 1017.8 hPa -
Precipitation: 0 mm    
Historical Graphs
 
 
Tabular Data for September 11, 2017
Time Temperature Dew Point Pressure Wind Wind Speed Wind Gust Humidity Rainfall Rate (Hourly)
00:01 16.8 °C 11.9 °C 1026 hPa Calm     73 % 0 mm
00:12 16.7 °C 12 °C 1026 hPa Calm   3.7 km/h 74 % 0 mm
00:17 16.6 °C 11.9 °C 1026.3 hPa Calm     74 % 0 mm
00:22 16.5 °C 12.1 °C 1026 hPa Calm     75 % 0 mm
00:27 16.4 °C 12.2 °C 1026.3 hPa Calm     76 % 0 mm
00:32 16.3 °C 12.1 °C 1026 hPa NW 0.2 km/h 3.7 km/h 76 % 0 mm
00:37 16.2 °C 11.9 °C 1026 hPa NNE 1.1 km/h 3.7 km/h 76 % 0 mm
00:42 16.1 °C 11.8 °C 1026 hPa Calm     76 % 0 mm
00:47 15.9 °C 11.9 °C 1026 hPa North 0.6 km/h 1.9 km/h 77 % 0 mm
00:52 15.8 °C 12 °C 1026 hPa NNW 3.5 km/h 7.4 km/h 78 % 0 mm
00:57 15.8 °C 11.9 °C 1026 hPa NE 5.8 km/h 14.8 km/h 78 % 0 mm
01:02 15.8 °C 12 °C 1026 hPa NNE 1 km/h 1.9 km/h 78 % 0 mm
01:07 15.8 °C 12 °C 1026 hPa North 1.4 km/h 5.6 km/h 78 % 0 mm
01:12 15.9 °C 12.1 °C 1026 hPa NNE 4.2 km/h 9.3 km/h 78 % 0 mm
01:17 15.9 °C 12.1 °C 1026 hPa NNE 1 km/h 5.6 km/h 78 % 0 mm
01:22 16 °C 12.2 °C 1026 hPa North 0.3 km/h 1.9 km/h 78 % 0 mm
01:27 16 °C 12.2 °C 1025.6 hPa NNE 0.6 km/h 7.4 km/h 78 % 0 mm
01:32 16 °C 11.9 °C 1025.6 hPa NNW 1 km/h 5.6 km/h 77 % 0 mm
01:37 16.1 °C 12 °C 1025.6 hPa North 6.1 km/h 16.1 km/h 77 % 0 mm
01:42 16.1 °C 12 °C 1025.3 hPa NW 0.3 km/h 3.2 km/h 77 % 0 mm
01:47 16.1 °C 12.1 °C 1025.3 hPa NNW 5.6 km/h 11.1 km/h 77 % 0 mm
01:52 16.2 °C 12.1 °C 1025.3 hPa NNW 0.2 km/h 3.7 km/h 77 % 0 mm
01:57 16.2 °C 11.9 °C 1025.3 hPa NNE 5.1 km/h 9.3 km/h 76 % 0 mm
02:02 16.2 °C 12 °C 1024.9 hPa North 6 km/h 11.1 km/h 76 % 0 mm
02:07 16.2 °C 11.8 °C 1024.9 hPa NE 7.7 km/h 16.7 km/h 75 % 0 mm
02:12 16.3 °C 12.1 °C 1024.9 hPa North 9.2 km/h 13 km/h 76 % 0 mm
02:17 16.3 °C 12.1 °C 1024.9 hPa NNE 6.9 km/h 14.8 km/h 76 % 0 mm
02:22 16.4 °C 11.9 °C 1024.6 hPa NNE 7.2 km/h 11.1 km/h 75 % 0 mm
02:27 16.4 °C 11.9 °C 1024.6 hPa NNE 9.3 km/h 14.8 km/h 75 % 0 mm
02:32 16.4 °C 11.8 °C 1024.6 hPa North 8.9 km/h 14.8 km/h 74 % 0 mm
02:37 16.4 °C 12 °C 1024.6 hPa North 13.2 km/h 18.5 km/h 75 % 0 mm
02:42 16.4 °C 11.8 °C 1024.6 hPa North 6.8 km/h 14.5 km/h 74 % 0 mm
02:47 16.4 °C 11.8 °C 1024.6 hPa NNE 10.9 km/h 17.7 km/h 74 % 0 mm
02:52 16.4 °C 11.8 °C 1024.6 hPa North 11.9 km/h 18.5 km/h 74 % 0 mm
02:57 16.4 °C 11.8 °C 1024.6 hPa North 6.6 km/h 14.8 km/h 74 % 0 mm
03:02 16.4 °C 12 °C 1024.6 hPa NNW 10.8 km/h 18.5 km/h 75 % 0 mm
03:07 16.4 °C 11.7 °C 1024.6 hPa North 6.9 km/h 13 km/h 74 % 0 mm
03:12 16.4 °C 11.6 °C 1024.6 hPa North 7.4 km/h 18.5 km/h 73 % 0 mm
03:17 16.3 °C 11.7 °C 1024.6 hPa NNE 9.8 km/h 14.8 km/h 74 % 0 mm
03:22 16.3 °C 11.9 °C 1024.6 hPa NNE 13 km/h 17.7 km/h 75 % 0 mm
03:28 16.3 °C 11.8 °C 1024.6 hPa NE 11.1 km/h 16.1 km/h 75 % 0 mm
03:33 16.3 °C 12.1 °C 1024.6 hPa NE 10.5 km/h 16.7 km/h 76 % 0 mm
03:38 16.3 °C 11.8 °C 1024.6 hPa NNE 11.7 km/h 24.1 km/h 75 % 0 mm
03:43 16.2 °C 11.8 °C 1024.6 hPa NNE 14.5 km/h 22.2 km/h 75 % 0 mm
03:48 16.3 °C 11.8 °C 1024.6 hPa NNE 6 km/h 18.5 km/h 75 % 0 mm
03:53 16.2 °C 11.8 °C 1024.6 hPa NNE 9 km/h 16.7 km/h 75 % 0 mm
03:58 16.2 °C 12 °C 1024.6 hPa North 4.3 km/h 11.1 km/h 76 % 0 mm
04:03 16.2 °C 11.9 °C 1024.3 hPa NNE 10.6 km/h 16.7 km/h 76 % 0 mm
04:08 16.2 °C 11.9 °C 1024.6 hPa NNE 7.1 km/h 18.5 km/h 76 % 0 mm
04:13 16.1 °C 11.9 °C 1024.6 hPa NNE 8.2 km/h 14.8 km/h 76 % 0 mm
04:18 16.1 °C 11.8 °C 1024.6 hPa North 7.9 km/h 13 km/h 76 % 0 mm
04:23 16 °C 11.8 °C 1024.6 hPa NNE 9.8 km/h 16.7 km/h 76 % 0 mm
04:28 15.9 °C 12.1 °C 1024.6 hPa NNE 5.8 km/h 11.1 km/h 78 % 0 mm
04:33 15.9 °C 12.1 °C 1024.6 hPa NNE 4.8 km/h 8 km/h 78 % 0 mm
04:38 15.8 °C 11.9 °C 1024.6 hPa NNE 6.1 km/h 9.7 km/h 78 % 0 mm
04:43 15.7 °C 11.9 °C 1024.6 hPa North 2.1 km/h 9.3 km/h 78 % 0 mm
04:48 15.7 °C 11.8 °C 1024.6 hPa NNE 0.6 km/h 1.6 km/h 78 % 0 mm
04:53 15.6 °C 12 °C 1024.6 hPa NNE 0.2 km/h 3.7 km/h 79 % 0 mm
04:59 15.6 °C 11.9 °C 1024.6 hPa Calm     79 % 0 mm
05:04 15.5 °C 11.9 °C 1024.9 hPa Calm     79 % 0 mm
05:09 15.4 °C 11.8 °C 1024.6 hPa Calm     79 % 0 mm
05:14 15.3 °C 11.9 °C 1024.6 hPa Calm     80 % 0 mm
05:19 15.2 °C 11.6 °C 1024.6 hPa NNE 0.8 km/h 6.4 km/h 79 % 0 mm
05:24 15.1 °C 11.7 °C 1024.6 hPa Calm     80 % 0 mm
05:29 15 °C 11.6 °C 1024.6 hPa Calm     80 % 0 mm
05:34 14.9 °C 11.4 °C 1024.9 hPa NNE 0.3 km/h 1.6 km/h 80 % 0 mm
05:39 14.8 °C 11.6 °C 1024.6 hPa NNE 0.6 km/h 5.6 km/h 81 % 0 mm
05:44 14.7 °C 11.6 °C 1024.6 hPa NNE 0.8 km/h 5.6 km/h 82 % 0 mm
05:49 14.6 °C 11.5 °C 1024.6 hPa Calm     82 % 0 mm
05:54 14.5 °C 11.4 °C 1024.9 hPa Calm     82 % 0 mm
05:59 14.4 °C 11.3 °C 1024.6 hPa Calm     82 % 0 mm
06:04 14.3 °C 11.5 °C 1024.6 hPa NNE 0.2 km/h 3.7 km/h 83 % 0 mm
06:15 14.2 °C 11.5 °C 1024.6 hPa Calm     84 % 0 mm
06:20 14.1 °C 11.4 °C 1024.9 hPa Calm     84 % 0 mm
06:25 13.9 °C 11.4 °C 1024.9 hPa Calm     85 % 0 mm
06:30 13.8 °C 11.3 °C 1025.3 hPa North 1.3 km/h 6.4 km/h 85 % 0 mm
06:35 13.7 °C 11.2 °C 1024.9 hPa Calm   1.9 km/h 85 % 0 mm
06:40 13.7 °C 11.2 °C 1024.9 hPa North 0.2 km/h 1.9 km/h 85 % 0 mm
06:45 13.5 °C 11 °C 1024.9 hPa Calm   3.7 km/h 85 % 0 mm
06:50 13.4 °C 11.2 °C 1025.3 hPa North 0.5 km/h 1.6 km/h 86 % 0 mm
06:55 13.3 °C 11.1 °C 1025.3 hPa NNE 1.6 km/h 5.6 km/h 86 % 0 mm
07:00 13.3 °C 11.2 °C 1025.3 hPa Calm   1.9 km/h 87 % 0 mm
07:05 13.2 °C 11.1 °C 1025.6 hPa NNW 1 km/h 5.6 km/h 87 % 0 mm
07:10 13.2 °C 11.3 °C 1025.6 hPa NNW 1 km/h 3.7 km/h 88 % 0 mm
07:15 13.3 °C 11.3 °C 1025.6 hPa North 0.8 km/h 5.6 km/h 88 % 0 mm
07:21 13.3 °C 11.5 °C 1025.6 hPa Calm   3.2 km/h 89 % 0 mm
07:26 13.3 °C 11.6 °C 1026 hPa NNW 1.6 km/h 3.2 km/h 89 % 0 mm
07:31 13.4 °C 11.6 °C 1026 hPa Calm   3.2 km/h 89 % 0 mm
07:36 13.5 °C 11.7 °C 1026 hPa NW 1.6 km/h 6.4 km/h 89 % 0 mm
07:41 13.6 °C 11.7 °C 1026 hPa WNW 1.1 km/h 9.3 km/h 88 % 0 mm
07:45 13.7 °C 11.8 °C 1026 hPa WNW 0.2 km/h 3.7 km/h 88 % 0 mm
07:51 13.8 °C 11.9 °C 1025.6 hPa NW 1.8 km/h 3.2 km/h 88 % 0 mm
07:56 14 °C 11.9 °C 1025.6 hPa WNW 1.6 km/h 4.8 km/h 87 % 0 mm
08:01 14.2 °C 12.1 °C 1025.6 hPa NW 1.8 km/h 5.6 km/h 87 % 0 mm
08:06 14.3 °C 11.8 °C 1025.6 hPa Calm   1.9 km/h 85 % 0 mm
08:11 14.4 °C 11.9 °C 1025.6 hPa West 0.6 km/h 3.7 km/h 85 % 0 mm
08:16 14.6 °C 12.1 °C 1025.3 hPa NW 0.6 km/h 4.8 km/h 85 % 0 mm
08:21 14.7 °C 12.2 °C 1025.3 hPa Calm     85 % 0 mm
08:26 14.8 °C 12.3 °C 1025.3 hPa NW 1.9 km/h 5.6 km/h 85 % 0 mm
08:31 15 °C 12.3 °C 1025.3 hPa North 0.2 km/h 1.9 km/h 84 % 0 mm
08:36 15.1 °C 12.4 °C 1025.3 hPa WNW 2.7 km/h 7.4 km/h 84 % 0 mm
08:41 15.2 °C 12.3 °C 1024.9 hPa NW 1 km/h 3.7 km/h 83 % 0 mm
08:46 15.3 °C 12.4 °C 1024.9 hPa WNW 5.5 km/h 7.4 km/h 83 % 0 mm
08:51 15.4 °C 12.4 °C 1024.9 hPa WNW 0.5 km/h 3.2 km/h 82 % 0 mm
08:56 15.6 °C 12.5 °C 1025.3 hPa WNW 1.3 km/h 7.4 km/h 82 % 0 mm
09:01 15.7 °C 12.6 °C 1025.3 hPa Calm   5.6 km/h 82 % 0 mm
09:06 15.8 °C 12.7 °C 1024.9 hPa West 3.7 km/h 7.4 km/h 82 % 0 mm
09:11 15.9 °C 12.6 °C 1025.3 hPa West 0.3 km/h 1.9 km/h 81 % 0 mm
09:16 16.1 °C 12.8 °C 1024.9 hPa North 4.7 km/h 7.4 km/h 81 % 0 mm
09:21 16.2 °C 12.3 °C 1024.9 hPa NNW 2.6 km/h 5.6 km/h 78 % 0 mm
09:24 16.2 °C 12.4 °C 1024.9 hPa WNW 2.3 km/h 3.7 km/h 78 % 0 mm
09:29 16.3 °C 12.9 °C 1024.9 hPa WNW 0.2 km/h 1.6 km/h 80 % 0 mm
09:34 16.4 °C 12.8 °C 1024.9 hPa WNW 0.6 km/h 5.6 km/h 79 % 0 mm
09:39 16.5 °C 12.8 °C 1024.9 hPa WNW 1.8 km/h 3.7 km/h 79 % 0 mm
09:44 16.7 °C 12.6 °C 1025.3 hPa Calm   5.6 km/h 77 % 0 mm
09:54 17.1 °C 12.6 °C 1024.9 hPa WNW 1.3 km/h 1.9 km/h 75 % 0 mm
09:59 17.3 °C 12.6 °C 1024.9 hPa NNE 3.5 km/h 5.6 km/h 74 % 0 mm
10:04 17.4 °C 12.8 °C 1024.9 hPa NNW 2.3 km/h 5.6 km/h 74 % 0 mm
10:09 17.6 °C 13.1 °C 1024.9 hPa NW 1.8 km/h 5.6 km/h 75 % 0 mm
10:14 17.7 °C 13 °C 1024.9 hPa Calm   5.6 km/h 74 % 0 mm
10:19 17.8 °C 13.1 °C 1024.9 hPa NW 1.1 km/h 3.7 km/h 74 % 0 mm
10:24 17.9 °C 13.2 °C 1024.9 hPa West 2.4 km/h 5.6 km/h 74 % 0 mm
10:29 17.9 °C 13.2 °C 1024.6 hPa North 1.6 km/h 5.6 km/h 74 % 0 mm
10:30 18 °C 13.3 °C 1024.6 hPa North 0.3 km/h 1.9 km/h 74 % 0 mm
10:35 18.1 °C 13.3 °C 1024.6 hPa WNW 2.7 km/h 5.6 km/h 74 % 0 mm
10:40 18.2 °C 13.2 °C 1024.6 hPa NNW 2.4 km/h 5.6 km/h 73 % 0 mm
10:45 18.3 °C 13.2 °C 1024.6 hPa NNW 2.9 km/h 5.6 km/h 72 % 0 mm
10:50 18.5 °C 13.6 °C 1024.3 hPa NW 0.6 km/h 3.7 km/h 73 % 0 mm
10:55 18.6 °C 13.4 °C 1024.3 hPa WNW 0.8 km/h 1.9 km/h 72 % 0 mm
11:00 18.8 °C 13.4 °C 1024.6 hPa NE 4.7 km/h 9.3 km/h 71 % 0 mm
11:05 19 °C 13.4 °C 1024.3 hPa West 4.5 km/h 11.1 km/h 70 % 0 mm
11:11 19.2 °C 13.4 °C 1024.6 hPa WNW 5.3 km/h 7.4 km/h 69 % 0 mm
11:16 19.6 °C 13.4 °C 1024.3 hPa West 3.2 km/h 11.3 km/h 68 % 0 mm
11:21 19.9 °C 14.3 °C 1024.3 hPa Calm   6.4 km/h 70 % 0 mm
11:26 20.4 °C 14.1 °C 1023.9 hPa WNW 4.8 km/h 7.4 km/h 67 % 0 mm
11:31 20.9 °C 14.3 °C 1023.9 hPa WNW 1.6 km/h 6.4 km/h 66 % 0 mm
11:36 21.3 °C 14 °C 1023.6 hPa WNW 1.6 km/h 9.7 km/h 63 % 0 mm
11:41 21.8 °C 13.9 °C 1023.6 hPa NW 3.2 km/h 8 km/h 61 % 0 mm
11:46 22.2 °C 13.8 °C 1023.6 hPa WNW 3.2 km/h 11.3 km/h 59 % 0 mm
11:51 22.6 °C 15.2 °C 1023.6 hPa Calm   6.4 km/h 63 % 0 mm
11:56 22.9 °C 15.2 °C 1023.2 hPa NW 1.6 km/h 6.4 km/h 62 % 0 mm
12:01 23.3 °C 15.3 °C 1023.2 hPa WNW 2.3 km/h 5.6 km/h 61 % 0 mm
12:06 23.6 °C 14.6 °C 1023.2 hPa North 4.7 km/h 5.6 km/h 57 % 0 mm
12:11 23.8 °C 15 °C 1022.9 hPa NNW 1 km/h 3.7 km/h 58 % 0 mm
12:16 23.9 °C 14.9 °C 1022.9 hPa NW 3.4 km/h 7.4 km/h 57 % 0 mm
12:21 24.2 °C 15.4 °C 1022.9 hPa West 3.9 km/h 7.4 km/h 58 % 0 mm
12:26 24.3 °C 14.4 °C 1022.9 hPa West 3.5 km/h 5.6 km/h 54 % 0 mm
12:31 24.3 °C 15.6 °C 1022.6 hPa North 1.6 km/h 5.6 km/h 58 % 0 mm
12:36 24.4 °C 14.2 °C 1022.6 hPa NNE 2.6 km/h 5.6 km/h 53 % 0 mm
12:41 24.6 °C 15.2 °C 1022.6 hPa NW 1 km/h 5.6 km/h 56 % 0 mm
12:46 24.8 °C 14.8 °C 1022.2 hPa NNE 1.6 km/h 5.6 km/h 54 % 0 mm
12:51 24.9 °C 15 °C 1022.2 hPa NE 5.1 km/h 8 km/h 54 % 0 mm
12:56 25 °C 14.8 °C 1022.2 hPa WNW 4.5 km/h 5.6 km/h 53 % 0 mm
13:01 25.1 °C 14.8 °C 1022.2 hPa NNW 1 km/h 5.6 km/h 53 % 0 mm
13:06 25.2 °C 15.8 °C 1022.2 hPa WNW 1.1 km/h 5.6 km/h 56 % 0 mm
13:11 25.4 °C 16 °C 1022.2 hPa WSW 2.6 km/h 5.6 km/h 56 % 0 mm
13:16 25.6 °C 14.7 °C 1022.2 hPa WNW 1.9 km/h 5.6 km/h 51 % 0 mm
13:21 25.6 °C 15.3 °C 1022.2 hPa NW 2.4 km/h 5.6 km/h 53 % 0 mm
13:26 25.6 °C 15 °C 1021.9 hPa WNW 5 km/h 7.4 km/h 52 % 0 mm
13:32 25.8 °C 16.1 °C 1021.9 hPa WNW 4.2 km/h 6.4 km/h 55 % 0 mm
13:37 25.8 °C 15.2 °C 1021.9 hPa WNW 4.2 km/h 5.6 km/h 52 % 0 mm
13:42 25.8 °C 14.3 °C 1021.9 hPa WSW 4 km/h 8 km/h 49 % 0 mm
13:47 25.9 °C 15 °C 1021.6 hPa WSW 3.4 km/h 5.6 km/h 51 % 0 mm
13:52 26 °C 16.3 °C 1021.6 hPa WSW 4.2 km/h 7.4 km/h 55 % 0 mm
13:57 26.1 °C 14.8 °C 1021.6 hPa WNW 1.4 km/h 5.6 km/h 50 % 0 mm
14:02 26.1 °C 13.6 °C 1021.9 hPa WSW 3.5 km/h 7.4 km/h 46 % 0 mm
14:07 26.1 °C 15.2 °C 1021.6 hPa SSW 2.3 km/h 4.8 km/h 51 % 0 mm
14:12 26.1 °C 13.2 °C 1021.6 hPa WSW 2.4 km/h 9.3 km/h 45 % 0 mm
14:17 26.1 °C 13.2 °C 1021.2 hPa West 4.5 km/h 7.4 km/h 45 % 0 mm
14:22 26.1 °C 13.2 °C 1021.2 hPa WSW 1.3 km/h 4.8 km/h 45 % 0 mm
14:27 26.1 °C 13.6 °C 1021.2 hPa WSW 4.2 km/h 11.1 km/h 46 % 0 mm
14:33 26.2 °C 13.9 °C 1021.2 hPa West 2.6 km/h 5.6 km/h 47 % 0 mm
14:38 26.2 °C 14.7 °C 1021.2 hPa WSW 4.5 km/h 11.1 km/h 49 % 0 mm
14:43 26.2 °C 13.6 °C 1021.2 hPa WNW 4.2 km/h 6.4 km/h 46 % 0 mm
14:48 26.2 °C 13.9 °C 1020.9 hPa West 3.2 km/h 9.3 km/h 47 % 0 mm
14:53 26.1 °C 13.9 °C 1020.9 hPa WSW 1.6 km/h 5.6 km/h 47 % 0 mm
14:58 26.1 °C 14.2 °C 1020.9 hPa NNW 0.2 km/h 7.4 km/h 48 % 0 mm
15:03 26.1 °C 13.2 °C 1020.9 hPa West 5 km/h 9.3 km/h 45 % 0 mm
15:08 26.2 °C 13.6 °C 1020.9 hPa WNW 4.7 km/h 7.4 km/h 46 % 0 mm
15:13 26.2 °C 13.6 °C 1020.5 hPa NNW 2.1 km/h 7.4 km/h 46 % 0 mm
15:18 26.3 °C 13.1 °C 1020.5 hPa WSW 1.8 km/h 7.4 km/h 44 % 0 mm
15:23 26.3 °C 13.1 °C 1020.5 hPa West 1.4 km/h 7.4 km/h 44 % 0 mm
15:28 26.4 °C 12.4 °C 1020.5 hPa WNW 3.2 km/h 5.6 km/h 42 % 0 mm
15:33 26.4 °C 12.5 °C 1020.2 hPa WNW 2.4 km/h 6.4 km/h 42 % 0 mm
15:38 26.6 °C 12.6 °C 1020.5 hPa NW 2.1 km/h 5.6 km/h 42 % 0 mm
15:43 26.6 °C 12.9 °C 1020.2 hPa WSW 1.8 km/h 8 km/h 43 % 0 mm
15:48 26.6 °C 13.7 °C 1020.2 hPa WNW 2.3 km/h 5.6 km/h 45 % 0 mm
15:53 26.6 °C 13.3 °C 1020.5 hPa West 6 km/h 11.1 km/h 44 % 0 mm
15:58 26.6 °C 12.6 °C 1020.2 hPa WSW 1.8 km/h 5.6 km/h 42 % 0 mm
16:03 26.5 °C 12.9 °C 1020.2 hPa WSW 6.3 km/h 7.4 km/h 43 % 0 mm
16:08 26.4 °C 13.2 °C 1020.2 hPa South 2.7 km/h 5.6 km/h 44 % 0 mm
16:13 26.3 °C 12.8 °C 1020.2 hPa WSW 3.9 km/h 6.4 km/h 43 % 0 mm
16:18 26.2 °C 13 °C 1020.2 hPa SW 3.1 km/h 7.4 km/h 44 % 0 mm
16:23 26.1 °C 12.9 °C 1020.2 hPa West 1.1 km/h 5.6 km/h 44 % 0 mm
16:28 26.1 °C 12.5 °C 1020.2 hPa WSW 5.1 km/h 13 km/h 43 % 0 mm
16:33 26 °C 12.4 °C 1020.2 hPa West 1.4 km/h 3.7 km/h 43 % 0 mm
16:38 25.9 °C 12.7 °C 1019.9 hPa WSW 2.4 km/h 3.7 km/h 44 % 0 mm
16:44 25.8 °C 12.9 °C 1019.9 hPa WNW 2.1 km/h 7.4 km/h 45 % 0 mm
16:49 25.7 °C 12.5 °C 1019.5 hPa SW 9.3 km/h 11.3 km/h 44 % 0 mm
16:54 25.6 °C 12.7 °C 1019.5 hPa WSW 3.4 km/h 11.3 km/h 45 % 0 mm
16:59 25.4 °C 12.7 °C 1019.5 hPa WSW 1.6 km/h 5.6 km/h 45 % 0 mm
17:04 25.3 °C 12.6 °C 1019.5 hPa WSW 5.6 km/h 9.3 km/h 45 % 0 mm
17:09 25.2 °C 13.1 °C 1019.5 hPa WSW 1.1 km/h 1.9 km/h 47 % 0 mm
17:14 25.1 °C 13 °C 1019.5 hPa Calm     47 % 0 mm
17:19 24.9 °C 12.8 °C 1019.5 hPa Calm   1.9 km/h 47 % 0 mm
17:20 24.9 °C 12.8 °C 1019.5 hPa SSW 0.8 km/h 3.7 km/h 47 % 0 mm
17:25 24.8 °C 13.3 °C 1019.5 hPa WSW 2.9 km/h 4.8 km/h 49 % 0 mm
17:30 24.6 °C 13.5 °C 1019.5 hPa West 1.9 km/h 1.9 km/h 50 % 0 mm
17:35 24.5 °C 13.7 °C 1019.5 hPa WNW 0.2 km/h 3.7 km/h 51 % 0 mm
17:40 24.3 °C 13.6 °C 1019.5 hPa WNW 1.4 km/h 5.6 km/h 51 % 0 mm
17:46 24.2 °C 13.1 °C 1019.2 hPa West 1.6 km/h 8 km/h 50 % 0 mm
17:50 24 °C 13.6 °C 1019.2 hPa Calm   3.2 km/h 52 % 0 mm
17:56 23.9 °C 13.1 °C 1019.2 hPa West 1.6 km/h 6.4 km/h 51 % 0 mm
18:01 23.7 °C 13.3 °C 1019.2 hPa West 3.4 km/h 5.6 km/h 52 % 0 mm
18:06 23.6 °C 13.4 °C 1018.8 hPa Calm   6.4 km/h 53 % 0 mm
18:11 23.4 °C 13.3 °C 1018.8 hPa Calm   1.6 km/h 53 % 0 mm
18:15 23.3 °C 13.4 °C 1018.8 hPa Calm   1.9 km/h 54 % 0 mm
18:20 23.1 °C 13.6 °C 1018.8 hPa WNW 0.3 km/h 1.9 km/h 55 % 0 mm
18:25 23 °C 14 °C 1018.8 hPa WNW 0.2 km/h 1.9 km/h 57 % 0 mm
18:30 22.8 °C 13.9 °C 1018.8 hPa WNW 1.6 km/h 4.8 km/h 57 % 0 mm
18:36 22.7 °C 14 °C 1018.8 hPa Calm   4.8 km/h 58 % 0 mm
18:41 22.5 °C 14.6 °C 1018.8 hPa Calm   1.6 km/h 61 % 0 mm
18:45 22.3 °C 14.2 °C 1018.8 hPa Calm   3.2 km/h 60 % 0 mm
18:50 22.2 °C 14.1 °C 1018.8 hPa Calm   6.4 km/h 60 % 0 mm
18:56 22 °C 13.9 °C 1018.8 hPa Calm   1.6 km/h 60 % 0 mm
19:01 21.9 °C 14.5 °C 1018.8 hPa WNW 1.3 km/h 5.6 km/h 63 % 0 mm
19:06 21.8 °C 14.4 °C 1018.8 hPa West 1.6 km/h 8 km/h 63 % 0 mm
19:11 21.6 °C 14.6 °C 1018.8 hPa West 1.6 km/h 6.4 km/h 64 % 0 mm
19:16 21.5 °C 14.4 °C 1018.8 hPa Calm   4.8 km/h 64 % 0 mm
19:20 21.4 °C 14.3 °C 1018.8 hPa WNW 1.6 km/h 4.8 km/h 64 % 0 mm
19:25 21.3 °C 14.2 °C 1018.8 hPa Calm   1.6 km/h 64 % 0 mm
19:31 21.2 °C 14.1 °C 1018.8 hPa West 1.6 km/h 4.8 km/h 64 % 0 mm
19:36 21.1 °C 14 °C 1018.8 hPa Calm   4.8 km/h 64 % 0 mm
19:40 20.9 °C 14.1 °C 1018.8 hPa Calm   1.6 km/h 65 % 0 mm
19:45 20.8 °C 13.9 °C 1018.5 hPa Calm   4.8 km/h 65 % 0 mm
19:51 20.7 °C 14.1 °C 1018.5 hPa WNW 1.6 km/h 4.8 km/h 66 % 0 mm
19:56 20.6 °C 14.2 °C 1018.8 hPa Calm   3.2 km/h 67 % 0 mm
20:01 20.4 °C 14.3 °C 1018.8 hPa WNW 0.3 km/h 3.7 km/h 68 % 0 mm
20:06 20.3 °C 14.4 °C 1018.8 hPa WNW 0.8 km/h 1.9 km/h 69 % 0 mm
20:11 20.3 °C 14.4 °C 1018.8 hPa Calm   3.7 km/h 69 % 0 mm
20:16 20.2 °C 14.3 °C 1018.5 hPa Calm     69 % 0 mm
20:21 20.1 °C 14.2 °C 1018.8 hPa Calm     69 % 0 mm
20:26 19.9 °C 14.1 °C 1018.8 hPa West 0.6 km/h 3.7 km/h 69 % 0 mm
20:31 19.8 °C 14.2 °C 1018.8 hPa West 0.2 km/h 3.7 km/h 70 % 0 mm
20:36 19.7 °C 14.3 °C 1018.8 hPa Calm   1.9 km/h 71 % 0 mm
20:41 19.6 °C 14.2 °C 1018.8 hPa Calm     71 % 0 mm
20:46 19.5 °C 14.1 °C 1018.8 hPa Calm     71 % 0 mm
20:51 19.4 °C 14.2 °C 1018.8 hPa West 0.2 km/h 1.9 km/h 72 % 0 mm
20:56 19.2 °C 14.3 °C 1018.8 hPa West 0.5 km/h 1.9 km/h 73 % 0 mm
21:01 19.1 °C 14.2 °C 1018.8 hPa West 0.2 km/h 1.9 km/h 73 % 0 mm
21:06 19 °C 14.3 °C 1018.8 hPa West 0.6 km/h 3.7 km/h 74 % 0 mm
21:11 18.9 °C 14.2 °C 1018.8 hPa West 1 km/h 3.7 km/h 74 % 0 mm
21:16 18.8 °C 14.4 °C 1018.8 hPa West 1.1 km/h 3.7 km/h 76 % 0 mm
21:21 18.7 °C 14.6 °C 1018.8 hPa West 0.2 km/h 1.9 km/h 77 % 0 mm
21:26 18.6 °C 14.5 °C 1018.8 hPa Calm   1.9 km/h 77 % 0 mm
21:31 18.6 °C 14.7 °C 1018.8 hPa Calm     78 % 0 mm
21:36 18.5 °C 14.8 °C 1018.8 hPa West 2.3 km/h 5.6 km/h 79 % 0 mm
21:41 18.4 °C 14.7 °C 1018.8 hPa West 0.6 km/h 3.2 km/h 79 % 0 mm
21:47 18.3 °C 14.8 °C 1018.5 hPa West 1.4 km/h 1.9 km/h 80 % 0 mm
21:51 18.3 °C 14.9 °C 1018.8 hPa Calm   1.9 km/h 81 % 0 mm
21:57 18.2 °C 14.8 °C 1018.5 hPa West 1.1 km/h 3.7 km/h 81 % 0 mm
22:02 18.1 °C 14.8 °C 1018.5 hPa West 0.5 km/h 1.9 km/h 81 % 0 mm
22:07 18 °C 14.7 °C 1018.5 hPa West 1.4 km/h 3.2 km/h 81 % 0 mm
22:12 17.9 °C 14.6 °C 1018.5 hPa West 0.6 km/h 1.9 km/h 81 % 0 mm
22:17 17.8 °C 14.5 °C 1018.5 hPa West 0.6 km/h 1.9 km/h 81 % 0 mm
22:22 17.7 °C 14.4 °C 1018.5 hPa West 2.1 km/h 5.6 km/h 81 % 0 mm
22:27 17.7 °C 14.4 °C 1018.5 hPa West 2.3 km/h 5.6 km/h 81 % 0 mm
22:32 17.6 °C 14.5 °C 1018.5 hPa WSW 0.5 km/h 1.9 km/h 82 % 0 mm
22:37 17.6 °C 14.4 °C 1018.5 hPa WSW 0.2 km/h 1.9 km/h 82 % 0 mm
22:42 17.5 °C 14.6 °C 1018.5 hPa WSW 1 km/h 3.7 km/h 83 % 0 mm
22:47 17.4 °C 14.5 °C 1018.2 hPa WSW 1.1 km/h 3.7 km/h 83 % 0 mm
22:52 17.4 °C 14.4 °C 1018.2 hPa WSW 0.3 km/h 1.9 km/h 83 % 0 mm
22:57 17.3 °C 14.6 °C 1018.2 hPa Calm   3.7 km/h 84 % 0 mm
23:02 17.3 °C 14.6 °C 1018.2 hPa WSW 1.9 km/h 5.6 km/h 84 % 0 mm
23:07 17.2 °C 14.5 °C 1018.5 hPa Calm     84 % 0 mm
23:12 17.2 °C 14.3 °C 1018.2 hPa WSW 1.6 km/h 3.7 km/h 83 % 0 mm
23:17 17.2 °C 14.3 °C 1018.2 hPa WSW 1.8 km/h 3.7 km/h 83 % 0 mm
23:22 17.2 °C 14.1 °C 1018.2 hPa Calm   1.9 km/h 82 % 0 mm
23:23 17.2 °C 14.1 °C 1018.2 hPa Calm     82 % 0 mm
23:28 17.2 °C 14.1 °C 1018.2 hPa WNW 2.6 km/h 5.6 km/h 82 % 0 mm
23:33 17.1 °C 13.8 °C 1018.2 hPa WNW 0.5 km/h 5.6 km/h 81 % 0 mm
23:43 17.2 °C 13.7 °C 1018.2 hPa West 2.3 km/h 5.6 km/h 80 % 0 mm
23:48 17.2 °C 13.7 °C 1017.8 hPa WNW 1.4 km/h 8 km/h 80 % 0 mm
23:53 17.3 °C 13.8 °C 1017.8 hPa WNW 3.7 km/h 5.6 km/h 80 % 0 mm
23:58 17.4 °C 13.9 °C 1017.8 hPa West 2.9 km/h 5.6 km/h 80 % 0 mm
Crab Meadow Weather
Compliments of Weather Underground - 3 mb

Script developed by  Jim McMurry - jmcmurry@mwt.net Adapted for the template by  Wim van der Kuil - Leuven-Template.eu

Extremes: In Wyndham, Australia, the temperature reached 90 degrees F for 333 days in 1946.